www.pogodaiklimat.ru

Погода и климат >> Архив погоды >> Казахстан >> Ширик-Рабат


АРХИВ ПОГОДЫ в Ширик-Рабате

Время (UTC), дата Ветер
(напр.,м/с)
 
Видим.   Явления Облачность Т
(С)
Тd
(С)
f
(%)
Тe
(С)
Тes
(С)
Комфортность P
(гПа)
Po
(гПа)
Тmin
(С)
Tmax
(С)
R
(мм)
R24
(мм)
S
(см)
06 16.08 З 2 10 км ясно +27.2 +6.2 26 +26 +40 жарко 1016.8 1006.8 +14.5
09 16.08 З 3 10 км ясно +29.8 +5.1 21 +28 +41 жарко 1015.1 1005.1
12 16.08 З 3 10 км 6/6 1000 м
[Cu med, cong]
+31.8 +5.5 19 +30 +31 жарко 1013.4 1003.5
15 16.08 С 3 10 км 3/0
[Ac lent]
+30.1 +5.8 22 +29 +29 жарко 1013.2 1003.3 +33.1
18 16.08 штиль 0 10 км ясно +24.6 +5.0 28 +24 +24 комфорт 1014.3 1004.2 +33.1
21 16.08 штиль 0 10 км ясно +22.3 +4.5 31 +22 +22 комфорт 1015.0 1004.9
00 17.08 штиль 0 10 км ясно +18.0 +4.0 39 +18 +18 1015.0 1005.0
03 17.08 штиль 0 10 км ясно +19.5 +5.0 38 +20 +24 1014.8 1004.5
06 17.08 В 2 10 км ясно +29.0 +9.5 30 +29 +42 жарко 1015.1 1005.1 +16.9
09 17.08 В 2 10 км ясно +33.5 +7.6 20 +32 +46 жарко 1014.0 1004.2
12 17.08 В 2 10 км ясно +33.0 +5.9 18 +31 +36 жарко 1013.0 1003.2
15 17.08 штиль 0 10 км ясно +30.5 +6.8 23 +29 +29 жарко 1013.4 1003.5 +35.1
18 17.08 штиль 0 10 км ясно +25.0 +5.5 29 +25 +25 комфорт 1014.3 1004.2 +35.1
21 17.08 штиль 0 10 км ясно +22.5 +5.6 33 +23 +23 комфорт 1014.3 1004.2
00 18.08 штиль 0 10 км ясно +18.8 +6.0 43 +19 +19 1015.4 1005.0
03 18.08 штиль 0 10 км ясно +21.4 +5.3 35 +22 +26 комфорт 1016.9 1006.2
06 18.08 С 1 10 км ясно +31.6 +7.0 22 +30 +46 жарко 1016.5 1006.6 +18.7
12 18.08 С 2 10 км ясно +34.0 +5.6 17 +32 +36 жарко 1015.5 1005.7
18 18.08 штиль 0 10 км ясно +26.8 +6.7 28 +26 +26 жарко 1018.3 1008.2 +35.8
21 18.08 штиль 0 10 км ясно +23.3 +6.1 33 +24 +24 комфорт 1019.2 1009.0
00 19.08 штиль 0 10 км ясно +21.5 +5.8 36 +22 +22 комфорт 1019.8 1009.5
03 19.08 штиль 0 10 км ясно +22.2 +8.0 40 +23 +27 комфорт 1020.4 1010.2
06 19.08 В 3 10 км ясно +31.0 +8.9 25 +30 +41 жарко 1020.3 1010.3 +19.9
09 19.08 В 4 10 км ясно +33.3 +7.4 20 +32 +41 жарко 1019.1 1009.2
12 19.08 В 4 10 км ясно +33.6 +7.4 20 +32 +35 жарко 1018.3 1008.4
15 19.08 В 2 10 км ясно +31.0 +6.5 22 +30 +30 жарко 1019.0 1009.0 +35.5
18 19.08 В 2 10 км ясно +27.2 +6.5 27 +27 +27 жарко 1020.0 1009.9 +35.5
21 19.08 В 2 10 км ясно +22.5 +5.6 33 +23 +23 комфорт 1020.6 1010.4
00 20.08 штиль 0 10 км ясно +20.1 +5.3 38 +21 +21 комфорт 1019.8 1009.5
03 20.08 штиль 0 10 км ясно +23.3 +6.4 34 +24 +28 комфорт 1020.4 1010.2
06 20.08 С 1 10 км ясно +34.5 +8.2 20 +33 +48 жарко 1020.0 1010.2 +20.0
09 20.08 В 3 10 км 3/3 1000 м
[Cu hum]
+37.8 +8.4 17 +36 +44 очень
жарко
1018.5 1008.5
12 20.08 С 3 10 км ясно +38.3 +8.6 17 +37 +40 очень
жарко
1016.9 1007.8
15 20.08 С 1 10 км ясно +36.3 +8.4 18 +34 +34 очень
жарко
1016.1 1006.4 +39.9
18 20.08 штиль 0 10 км ясно +29.5 +7.4 25 +29 +29 жарко 1016.4 1006.4 +39.9
21 20.08 штиль 0 10 км ясно +24.8 +6.5 31 +25 +25 комфорт 1016.8 1006.7
00 21.08 штиль 0 10 км ясно +20.0 +5.3 38 +20 +20 1016.0 1005.9
03 21.08 В 2 10 км ясно +24.5 +8.0 35 +25 +28 комфорт 1016.0 1005.9
06 21.08 В 2 10 км ясно +33.0 +11.9 28 +33 +46 жарко 1016.0 1006.2 +20.0
09 21.08 В 3 10 км ясно +37.0 +12.0 22 +36 +48 очень
жарко
1014.8 1005.1
12 21.08 В 3 10 км ясно +37.3 +10.9 20 +36 +40 очень
жарко
1013.3 1003.6
15 21.08 штиль 0 10 км ясно +35.0 +8.6 20 +33 +33 жарко 1012.7 1002.9 +39.5
18 21.08 штиль 0 10 км ясно +28.0 +6.1 25 +27 +27 жарко 1012.4 1002.5 +39.5
21 21.08 штиль 0 10 км ясно +24.1 +5.6 30 +24 +24 комфорт 1012.2 1002.1
00 22.08 штиль 0 10 км ясно +21.3 +4.8 34 +22 +22 комфорт 1011.6 1001.4
03 22.08 штиль 0 10 км ясно +24.3 +5.1 29 +24 +28 комфорт 1011.7 1001.6
06 22.08 С 3 10 км ясно +33.8 +10.2 24 +33 +44 жарко 1012.0 1002.3 +21.2
12 22.08 В 5 10 км ясно +36.3 +10.2 21 +35 +38 очень
жарко
1011.8 1002.1
15 22.08 С 3 10 км ясно +32.8 +9.8 24 +32 +32 жарко 1012.7 1002.9 +38.1
18 22.08 штиль 0 10 км ясно +27.5 +8.5 30 +27 +27 жарко 1013.6 1003.6 +38.1
21 22.08 штиль 0 10 км ясно +24.3 +7.4 34 +25 +25 комфорт 1014.1 1004.0
00 23.08 В 1 10 км ясно +19.9 +4.8 37 +22 +22 комфорт 1014.5 1004.4
03 23.08 С 1 10 км ясно +19.4 +4.5 37 +21 +24 комфорт 1016.1 1005.8

 

Местоположение метеостанции Ширик-Рабат (Кызылординская область, Казахстан): широта 44.07 долгота 62.90 высота над уровнем моря 88 м.

В архиве по умолчанию представлена погода в Ширик-Рабате за последнюю неделю. Архивные данные за месяц целиком и за предыдущие месяцы, начиная с января 2011 года, Вы можете получить, выбрав интересующий диапазон дат из раскрывающегося списка и нажав кнопку "Ввод!".


*Определитесь, кто Вы:
робот инопланетянин человек

Внимание! Время в таблицах - всемирное. Для получения местного времени необходимо прибавить поправку, которая равна 5 ч.

Смотрите также архив погоды в соседних городах и на ближайших метеорологических станциях:

Погода в Караке (Кызылординская область, Казахстан) (93 км)
Погода в Акбайтале (Навоийская область, Узбекистан) (154 км)
Погода в Каукее (Кызылординская область, Казахстан) (158 км)
Погода в Акае (Кызылординская область, Казахстан) (174 км)
Погода в Жалагаше (Кызылординская область, Казахстан) (180 км)
Погода в Жосалы (Кызылординская область, Казахстан) (184 км)
Погода в Казалинске (Кызылординская область, Казахстан) (199 км)
Погода в Тасбугете (Кызылординская область, Казахстан) (224 км)
Погода в Кызылорде (Кызылординская область, Казахстан) (224 км)
Погода в Учкудуке (Навоийская область, Узбекистан) (229 км)

Пояснения к столбцам:

Ветер - указаны скорость ветра в м/с - средняя за 10 мин, порывы в срок и между сроками (в фигурных скобках) и направление, откуда дует ветер: С - северный, СВ - северо-восточный, В - восточный, ЮВ - юго-восточный, Ю - южный, ЮЗ - юго-западный, З - западный, СЗ - северо-западный.
Видимость - горизонтальная дальность видимости в метрах или километрах. При видимости от 1 до 10 км при отсутствии осадков обычно наблюдается дымка, при ухудшении видимости до 1 км и менее - туман. В сухую погоду видимость может ухудшаться дымом, пылью или мглою.
Явления - указаны атмосферные явления, наблюдавшиеся в срок или в последний час перед сроком; фигурными скобками обозначены явления, наблюдавшиеся между сроками (за 1-3 часа до срока); квадратными скобками обозначены град или гололедные отложения с указанием их диаметра в мм.
Облачность - указаны через наклонную черту общая и нижняя облачность в баллах и высота нижней границы облаков в метрах; квадратными скобками обозначены формы облаков: Ci - перистые, Cs - перисто-слоистые, Cc - перисто-кучевые, Ac - высококучевые, As - высокослоистые, Sc - слоисто-кучевые, Ns - слоисто-дождевые, Cu - кучевые, Cb - кучево-дождевые. Подробнее классификацию облаков см. в Атласе облаков (PDF).
T - Температура воздуха - температура, измеренная на высоте 2 м над землей.
Td - Температура точки росы - температура, при понижении до которой содержащийся в воздухе водяной пар достигнет насыщения.
f - Относительная влажность воздуха - влажноcть воздуха, измеренная на высоте 2 м над землей.
Te - Эффективная температура - температура, которую ощущает одетый по сезону человек в тени. Характеристика душности погоды. При расчете учитывается влияние влажности воздуха и скорости ветра на теплоощущения человека.
Tes - Эффективная температура на солнце - температура, которую ощущает человек, с поправкой на солнечный нагрев. Характеристика знойности погоды. Зависит от высоты солнца над горизонтом, облачности и скорости ветра. Ночью, в пасмурную погоду, а также при ветре 12 м/с и более поправка равна нулю.
P - Атмосферное давление - приведенное к уровню моря атмосферное давление.
Po - Атмосферное давление - измеренное на уровне метеостанции атмосферное давление.
Tmin - Минимальная температура - минимум температуры воздуха на высоте 2 м над землей.
Tmax - Максимальная температура - максимум температуры воздуха на высоте 2 м над землей.
R - Количество осадков - Количество выпавших осадков за период времени, мм. При наведении курсора мыши на число - период времени, за который выпало указанное количество осадков.
R24 - Количество осадков - Количество выпавших осадков за 24 часа, мм.
S - Снежный покров - Высота снежного покрова, см. При наведении курсора мыши на число - состояние снежного покрова и степень покрытия местности в баллах.